Carbondale, IL

1:29 PM CST on November 13, 2019 (GMT -0600)
Southern Illinois

Weather History for KMDH - August, 2019

Change the Weather History Date:

Friday, August 30, 2019

  Actual Average Record
Temperature  
Mean Temperature 76 °F -  
Max Temperature 88 °F 87 °F 102 °F (1924)
Min Temperature 64 °F 62 °F 43 °F (1988)
Cooling Degree Days 11    
Growing Degree Days 26 (Base 50)    
Moisture  
Dew Point 65 °F    
Average Humidity 72    
Maximum Humidity 93    
Minimum Humidity 43    
Precipitation  
Precipitation 0.00 in - - ()
Sea Level Pressure  
Sea Level Pressure 30.05 in    
Wind  
Wind Speed 5 mph (South)    
Max Wind Speed 8 mph    
Max Gust Speed -    
Visibility 10 miles    
Events      
Averages and records for this station are not official NWS values.
T = Trace of Precipitation, MM = Missing Value Source: NWS Daily Summary

Daily Weather History Graph

Daily Weather History Graph

Search for Another Location

Airport or City:

Astronomy

Aug. 30, 2019 Rise Set
Actual Time 6:25 AM CDT 7:29 PM CDT
Civil Twilight 5:58 AM CDT 7:56 PM CDT
Nautical Twilight 5:26 AM CDT 8:28 PM CDT
Astronomical Twilight 4:52 AM CDT 9:01 PM CDT
Moon 6:26 AM CDT (8/30) 8:05 PM CDT (8/30)
Length of Visible Light 13h 58m
Length of Day
13h 04m
New Moon, 0% of the Moon is Illuminated
Aug 30
New Moon
Sep 5
First Quarter
Sep 13
Full
Sep 21
Last Quarter
Sep 28
New

Hourly Weather History & Observations

Time (CDT) Temp. Heat Index Dew Point Humidity Pressure Visibility Wind Dir Wind Speed Gust Speed Precip Events Conditions
12:52 AM 66.9 °F - 60.1 °F 79% 30.03 in 10.0 mi SSW 6.9 mph - N/A   Clear
1:52 AM 66.9 °F - 60.1 °F 79% 30.03 in 10.0 mi SSW 5.8 mph - N/A   Clear
2:52 AM 66.0 °F - 61.0 °F 84% 30.02 in 10.0 mi SSW 5.8 mph - N/A   Clear
3:52 AM 66.9 °F - 61.0 °F 81% 30.02 in 10.0 mi SW 4.6 mph - N/A   Clear
4:52 AM 66.0 °F - 63.0 °F 90% 30.04 in 10.0 mi Calm Calm - N/A   Overcast
5:52 AM 64.0 °F - 62.1 °F 93% 30.06 in 10.0 mi SSE 3.5 mph - N/A   Mostly Cloudy
6:52 AM 64.9 °F - 62.1 °F 90% 30.07 in 10.0 mi SSW 3.5 mph - N/A   Clear
7:52 AM 71.1 °F - 63.0 °F 75% 30.07 in 10.0 mi South 5.8 mph - N/A   Partly Cloudy
8:52 AM 75.0 °F - 63.0 °F 66% 30.08 in 10.0 mi WSW 4.6 mph - N/A   Scattered Clouds
9:52 AM 79.0 °F - 63.0 °F 58% 30.07 in 10.0 mi SW 8.1 mph - N/A   Clear
10:52 AM 79.0 °F - 63.0 °F 58% 30.08 in 10.0 mi SW 6.9 mph - N/A   Clear
11:52 AM 81.0 °F 82.7 °F 64.9 °F 58% 30.09 in 10.0 mi Variable 5.8 mph - N/A   Clear
12:52 PM 84.0 °F 86.5 °F 66.9 °F 56% 30.07 in 10.0 mi Calm Calm - N/A   Clear
1:52 PM 86.0 °F 89.4 °F 68.0 °F 55% 30.05 in 10.0 mi South 5.8 mph - N/A   Clear
2:52 PM 88.0 °F 88.7 °F 63.0 °F 43% 30.03 in 10.0 mi Variable 5.8 mph - N/A   Clear
3:52 PM 86.0 °F 88.2 °F 66.0 °F 51% 30.01 in 10.0 mi SE 8.1 mph - N/A   Clear
4:52 PM 84.0 °F 86.3 °F 66.0 °F 55% 30.01 in 10.0 mi South 8.1 mph - N/A   Clear
5:52 PM 82.0 °F 84.5 °F 66.9 °F 60% 30.03 in 10.0 mi SE 3.5 mph - N/A   Clear
6:52 PM 78.1 °F - 72.0 °F 81% 30.04 in 10.0 mi East 3.5 mph - N/A   Clear
7:52 PM 75.9 °F - 69.1 °F 79% 30.06 in 10.0 mi Calm Calm - N/A   Mostly Cloudy
8:52 PM 73.9 °F - 68.0 °F 82% 30.06 in 10.0 mi ESE 3.5 mph - N/A   Mostly Cloudy
9:52 PM 73.9 °F - 69.1 °F 85% 30.09 in 10.0 mi Calm Calm - N/A   Overcast
10:52 PM 73.0 °F - 70.0 °F 90% 30.09 in 10.0 mi Calm Calm - N/A   Overcast
11:52 PM 73.0 °F - 68.0 °F 84% 30.09 in 10.0 mi Calm Calm - N/A   Overcast